DC1NF-7 Weather Reports


time (UTC)temp
C
wind
direction
speed
KPH
gust
KPH
rain 1hr
cm
rain 24hr
cm
rain mn
cm
humidity
%
barometer
mb
20260506002552 11 205 1.6 3.2 0.00 0.69 0.00 96 1007.5
20260506001545 11 190 1.6 6.4 0.00 0.69 0.00 96 1007.4
20260506000542 11 180 1.6 3.2 0.00 0.69 0.00 96 1007.7
20260505235543 11 180 1.6 3.2 0.00 0.69 0.00 96 1007.6
20260505234536 11 187 3.2 6.4 0.00 0.69 0.00 96 1007.8
20260505233532 11 184 3.2 6.4 0.00 0.69 0.00 96 1007.7
20260505232528 11 184 3.2 6.4 0.00 0.69 0.00 97 1007.7
20260505231524 11 191 3.2 6.4 0.00 0.69 0.00 97 1007.8
20260505230520 12 225 1.6 3.2 0.00 0.69 0.00 96 1007.9
20260505225517 12 194 3.2 6.4 0.00 0.69 0.00 96 1007.9
20260505224614 12 244 3.2 6.4 0.00 0.69 0.00 96 1007.9
20260505223610 12 188 3.2 6.4 0.00 0.69 0.00 96 1008.0
20260505222606 12 228 3.2 9.7 0.00 0.69 0.00 96 1007.9
20260505221610 12 196 3.2 9.7 0.00 0.69 0.00 96 1008.0
20260505220558 12 185 4.8 9.7 0.00 0.69 0.00 96 1007.8
20260505215553 12 196 1.6 6.4 0.00 0.69 0.69 95 1007.9
20260505214552 12 212 1.6 6.4 0.00 0.69 0.69 95 1008.1
20260505213545 12 182 1.6 6.4 0.00 0.69 0.69 95 1008.1
20260505212542 12 198 3.2 6.4 0.00 0.69 0.69 95 1008.1
20260505211539 12 231 1.6 3.2 0.00 0.69 0.69 94 1007.8
20260505210538 12 210 1.6 6.4 0.00 0.69 0.69 95 1007.9
20260505205531 12 248 0.0 3.2 0.00 0.69 0.69 95 1007.8
20260505204529 12 248 0.0 3.2 0.00 0.69 0.69 95 1007.6
20260505203523 12 180 3.2 6.4 0.00 0.69 0.69 95 1007.8
20260505202523 13 202 3.2 6.4 0.00 0.69 0.69 95 1007.5
20260505201520 13 179 4.8 6.4 0.00 0.69 0.69 95 1007.6
20260505200614 13 213 1.6 3.2 0.00 0.69 0.69 95 1007.5
20260505195611 13 180 3.2 6.4 0.00 0.69 0.69 95 1007.6
20260505194607 13 180 1.6 3.2 0.00 0.69 0.69 95 1007.6
20260505193604 13 191 3.2 3.2 0.00 0.69 0.69 94 1007.5
20260505192559 13 222 1.6 6.4 0.00 0.69 0.69 93 1007.4
20260505191555 13 258 3.2 6.4 0.00 0.69 0.69 94 1007.3
20260505190552 13 243 3.2 6.4 0.00 0.69 0.69 94 1007.2
20260505185549 13 250 3.2 6.4 0.00 0.69 0.69 94 1007.2
20260505184545 13 226 3.2 6.4 0.00 0.69 0.69 94 1007.1
20260505183541 13 237 3.2 6.4 0.00 0.69 0.69 94 1007.2
20260505182537 13 237 1.6 6.4 0.00 0.69 0.69 94 1007.1
20260505181536 13 235 3.2 6.4 0.00 0.69 0.69 94 1007.1
20260505180529 13 218 3.2 6.4 0.00 0.69 0.69 94 1007.2
20260505175527 13 217 4.8 9.7 0.00 0.69 0.69 93 1007.1
20260505174520 13 255 3.2 9.7 0.00 0.69 0.69 93 1007.0
20260505173517 13 226 4.8 9.7 0.00 0.69 0.69 93 1006.9
20260505172614 13 230 6.4 11.3 0.00 0.69 0.69 92 1006.8
20260505171611 13 198 4.8 11.3 0.05 0.69 0.69 92 1006.7
20260505170610 13 241 4.8 9.7 0.13 0.69 0.69 92 1006.7
20260505165605 13 233 3.2 11.3 0.36 0.69 0.69 93 1006.7
20260505164559 13 229 4.8 11.3 0.64 0.69 0.69 93 1006.9
20260505163555 13 229 8.0 14.5 0.69 0.69 0.69 94 1006.8
20260505162552 13 226 9.7 17.7 0.69 0.69 0.69 93 1007.0
20260505161552 13 222 9.7 22.5 0.64 0.64 0.64 93 1007.3
20260505160548 13 240 11.3 22.5 0.56 0.56 0.56 93 1007.5
20260505152531 20 242 4.8 6.4 0.00 0.00 0.00 61 1005.9
20260505151529 21 240 6.4 11.3 0.00 0.00 0.00 57 1005.5
20260505150526 21 229 1.6 9.7 0.00 0.00 0.00 53 1005.5
20260505140603 22 106 3.2 6.4 0.00 0.00 0.00 50 1005.6
20260505124530 24 248 1.6 6.4 0.00 0.00 0.00 40 1006.4
20260505123527 25 210 3.2 6.4 0.00 0.00 0.00 39 1006.5
20260505122523 23 71 1.6 6.4 0.00 0.00 0.00 42 1006.6
20260505121520 23 213 3.2 6.4 0.00 0.00 0.00 41 1006.8
20260505120520 23 240 3.2 6.4 0.00 0.00 0.00 42 1006.8
20260505115615 23 218 3.2 6.4 0.00 0.00 0.00 43 1006.9
20260505114611 23 161 3.2 9.7 0.00 0.00 0.00 45 1007.0
20260505113607 25 73 1.6 6.4 0.00 0.00 0.00 40 1007.1
20260505112606 23 202 1.6 6.4 0.00 0.00 0.00 44 1007.2
20260505111601 22 235 3.2 6.4 0.00 0.00 0.00 45 1007.3
20260505110603 23 214 1.6 6.4 0.00 0.00 0.00 45 1007.3
20260505101539 22 72 4.8 11.3 0.00 0.00 0.00 49 1007.8
20260505100535 22 88 4.8 9.7 0.00 0.00 0.00 52 1007.9
20260505095528 21 79 3.2 6.4 0.00 0.00 0.00 53 1007.9
20260505094523 21 86 4.8 14.5 0.00 0.00 0.00 55 1008.1
20260505093520 21 74 6.4 14.5 0.00 0.00 0.00 55 1008.1
20260505092517 22 67 3.2 9.7 0.00 0.00 0.00 54 1008.3
20260505091617 21 77 6.4 12.9 0.00 0.00 0.00 56 1008.5
20260505090610 21 74 4.8 12.9 0.00 0.00 0.00 56 1008.5
20260505085606 20 110 1.6 6.4 0.00 0.00 0.00 59 1008.7
20260505084604 20 73 3.2 9.7 0.00 0.00 0.00 59 1008.6
20260505083558 20 89 3.2 9.7 0.00 0.00 0.00 59 1008.8
20260505082555 20 84 3.2 9.7 0.00 0.00 0.00 61 1009.0
20260505081555 18 194 1.6 3.2 0.00 0.00 0.00 65 1008.9
20260505080549 18 212 1.6 6.4 0.00 0.00 0.00 66 1009.0
20260505075545 18 184 1.6 6.4 0.00 0.00 0.00 65 1009.1
20260505074546 19 229 1.6 6.4 0.00 0.00 0.00 64 1009.3
20260505073541 18 237 1.6 6.4 0.00 0.00 0.00 65 1009.2
20260505072534 18 231 1.6 6.4 0.00 0.00 0.00 65 1009.5
20260505071530 17 234 3.2 6.4 0.00 0.00 0.00 68 1009.6
20260505070526 17 248 3.2 6.4 0.00 0.00 0.00 69 1009.5
20260505065531 16 218 3.2 6.4 0.00 0.00 0.00 73 1009.5
20260505064520 16 244 3.2 6.4 0.00 0.00 0.00 74 1009.5
20260505063519 16 222 1.6 6.4 0.00 0.00 0.00 75 1009.5
20260505062612 15 241 3.2 6.4 0.00 0.00 0.00 76 1009.7
20260505061608 15 242 0.0 3.2 0.00 0.00 0.00 78 1009.6
20260505060604 15 190 1.6 3.2 0.00 0.00 0.00 79 1009.6
20260505055559 15 248 1.6 3.2 0.00 0.00 0.00 79 1009.6
20260505054558 15 245 1.6 3.2 0.00 0.00 0.00 78 1009.6
20260505053552 15 251 3.2 3.2 0.00 0.00 0.00 78 1009.6
20260505052552 15 242 1.6 3.2 0.00 0.00 0.00 78 1009.5
20260505051549 15 233 1.6 3.2 0.00 0.00 0.00 78 1009.4
20260505050542 15 225 3.2 3.2 0.00 0.00 0.00 78 1009.5
20260505041524 14 0.0 3.2 0.00 0.00 0.00 80 1009.4
20260505040520 14 0.0 0.0 0.00 0.00 0.00 79 1009.3
20260505035517 14 0.0 0.0 0.00 0.00 0.00 78 1009.3
20260505034614 15 0.0 0.0 0.00 0.00 0.00 76 1009.4
20260505033610 15 0.0 0.0 0.00 0.00 0.00 75 1009.6
20260505032606 15 0.0 0.0 0.00 0.00 0.00 74 1009.9
20260505031602 15 0.0 3.2 0.00 0.00 0.00 74 1009.8
20260505030558 15 0.0 0.0 0.00 0.00 0.00 73 1010.1
20260505025558 15 0.0 3.2 0.00 0.00 0.00 72 1010.1
20260505024555 15 136 0.0 3.2 0.00 0.00 0.00 72 1010.1
20260505023548 15 208 1.6 3.2 0.00 0.00 0.00 72 1010.3
20260505022547 16 145 1.6 3.2 0.00 0.00 0.00 71 1010.3
20260505021544 16 97 4.8 9.7 0.00 0.00 0.00 70 1010.3
20260505020535 16 84 6.4 14.5 0.00 0.00 0.00 71 1010.5
20260505015531 16 69 3.2 6.4 0.00 0.00 0.00 71 1010.6
20260505014530 16 73 3.2 11.3 0.00 0.00 0.00 70 1010.5
20260505013527 16 72 8.0 14.5 0.00 0.00 0.00 70 1010.4
20260505012523 15 69 8.0 17.7 0.00 0.00 0.00 72 1010.6
20260505011517 15 66 3.2 9.7 0.00 0.00 0.00 74 1011.0
20260505010614 15 0.0 0.0 0.00 0.00 0.00 76 1011.1
20260505005612 15 0.0 0.0 0.00 0.00 0.00 75 1011.3
20260505004605 15 0.0 3.2 0.00 0.00 0.00 72 1011.3
20260505003601 15 248 0.0 3.2 0.00 0.00 0.00 73 1011.5